Stündliche Wetter München

Heute, 11 April, Sonntag

Zeit Temperatur Niederschläge Wind Luftdruck Luftfeuchtigkeit
00:00 +6°C° 0 mm 2 m/S 712 mmHg 78%
01:00 +6°C° 0 mm 2 m/S 712 mmHg 74%
02:00 +6°C° 0 mm 2 m/S 712 mmHg 73%
03:00 +6°C° 0 mm 2 m/S 712 mmHg 72%
04:00 +6°C° 0 mm 2 m/S 712 mmHg 70%
05:00 +6°C° 0 mm 2 m/S 712 mmHg 69%
06:00 +8°C° 0 mm 1 m/S 712 mmHg 69%
07:00 +9°C° 0 mm 1 m/S 712 mmHg 69%
08:00 +11°C° 0 mm 1 m/S 712 mmHg 63%
09:00 +13°C° 0 mm 1 m/S 712 mmHg 57%
10:00 +15°C° 0 mm 1 m/S 711 mmHg 50%
11:00 +16°C° 0 mm 1 m/S 711 mmHg 48%
12:00 +18°C° 0 mm 1 m/S 711 mmHg 45%
13:00 +19°C° 0 mm 1 m/S 711 mmHg 43%
14:00 +19°C° 0 mm 1 m/S 711 mmHg 44%
15:00 +19°C° 0 mm 1 m/S 711 mmHg 45%
16:00 +19°C° 0 mm 1 m/S 711 mmHg 47%
17:00 +16°C° 0 mm 1 m/S 711 mmHg 56%
18:00 +14°C° 0 mm 1 m/S 711 mmHg 64%
19:00 +12°C° 0 mm 2 m/S 711 mmHg 73%
20:00 +10°C° 0 mm 2 m/S 712 mmHg 78%
21:00 +9°C° 0 mm 3 m/S 713 mmHg 83%
22:00 +8°C° 0 mm 3 m/S 713 mmHg 88%
23:00 +8°C° 0.2 mm 2 m/S 714 mmHg 90%

Morgen, 12 April, Montag

Zeit Temperatur Niederschläge Wind Luftdruck Luftfeuchtigkeit
00:00 +8°C° 0.2 mm 2 m/S 714 mmHg 91%
01:00 +9°C° 0.2 mm 1 m/S 714 mmHg 92%
02:00 +8°C° 0.5 mm 2 m/S 715 mmHg 93%
03:00 +7°C° 0.5 mm 2 m/S 715 mmHg 94%
04:00 +7°C° 0.5 mm 3 m/S 715 mmHg 95%
05:00 +4°C° 0.7 mm 3 m/S 716 mmHg 96%
06:00 +3°C° 0.7 mm 4 m/S 716 mmHg 97%
07:00 0°C° 0.7 mm 4 m/S 717 mmHg 98%
08:00 0°C° 1 mm 4 m/S 718 mmHg 98%
09:00 0°C° 1 mm 4 m/S 719 mmHg 98%
10:00 0°C° 1 mm 4 m/S 719 mmHg 99%
11:00 +1°C° 0.5 mm 3 m/S 720 mmHg 99%
12:00 +1°C° 0.5 mm 3 m/S 720 mmHg 99%
13:00 +1°C° 0.5 mm 3 m/S 721 mmHg 99%
14:00 +1°C° 0.5 mm 3 m/S 721 mmHg 98%
15:00 +1°C° 0.5 mm 3 m/S 721 mmHg 98%
16:00 +2°C° 0.5 mm 2 m/S 721 mmHg 98%
17:00 +2°C° 0.4 mm 2 m/S 721 mmHg 97%
18:00 +2°C° 0.4 mm 2 m/S 722 mmHg 97%
19:00 +2°C° 0.4 mm 2 m/S 722 mmHg 96%
20:00 +1°C° 0.3 mm 2 m/S 722 mmHg 96%
21:00 +1°C° 0.3 mm 2 m/S 722 mmHg 96%
22:00 +1°C° 0.3 mm 2 m/S 722 mmHg 96%
23:00 +2°C° 0.2 mm 1 m/S 722 mmHg 97%

übermorgen, 13 April, Dienstag

Zeit Temperatur Niederschläge Wind Luftdruck Luftfeuchtigkeit
00:00 +2°C° 0.2 mm 1 m/S 722 mmHg 97%
01:00 +2°C° 0.2 mm 1 m/S 722 mmHg 97%
02:00 +1°C° 0.6 mm 1 m/S 722 mmHg 97%
03:00 +1°C° 0.6 mm 1 m/S 722 mmHg 98%
04:00 +1°C° 0.6 mm 1 m/S 722 mmHg 98%
05:00 +1°C° 0.6 mm 1 m/S 723 mmHg 97%
06:00 +1°C° 0.6 mm 1 m/S 723 mmHg 97%
07:00 +2°C° 0.6 mm 1 m/S 723 mmHg 96%
08:00 +2°C° 0.3 mm 1 m/S 723 mmHg 94%
09:00 +3°C° 0.3 mm 1 m/S 723 mmHg 92%
10:00 +3°C° 0.3 mm 1 m/S 723 mmHg 90%
11:00 +4°C° 0.2 mm 1 m/S 723 mmHg 86%
12:00 +5°C° 0.2 mm 1 m/S 723 mmHg 82%
13:00 +5°C° 0.2 mm 1 m/S 723 mmHg 78%
14:00 +5°C° 0.3 mm 1 m/S 723 mmHg 77%
15:00 +5°C° 0.3 mm 1 m/S 723 mmHg 76%
16:00 +6°C° 0.3 mm 1 m/S 723 mmHg 75%
17:00 +5°C° 0.5 mm 1 m/S 723 mmHg 83%
18:00 +4°C° 0.5 mm 1 m/S 723 mmHg 90%
19:00 +2°C° 0.5 mm 2 m/S 723 mmHg 97%
20:00 +1°C° 1 mm 2 m/S 723 mmHg 97%
21:00 +1°C° 1 mm 2 m/S 723 mmHg 96%
22:00 +1°C° 1 mm 2 m/S 723 mmHg 96%
23:00 +2°C° 0.2 mm 1 m/S 723 mmHg 95%

14 April, Mittwoch

Zeit Temperatur Niederschläge Wind Luftdruck Luftfeuchtigkeit
00:00 +1°C° 0.2 mm 1 m/S 723 mmHg 95%
01:00 +1°C° 0.2 mm 1 m/S 723 mmHg 95%
02:00 0°C° 0 mm 1 m/S 723 mmHg 95%
03:00 0°C° 0 mm 1 m/S 723 mmHg 95%
04:00 -1°C° 0 mm 1 m/S 723 mmHg 95%
05:00 0°C° 0 mm 1 m/S 723 mmHg 93%
06:00 0°C° 0 mm 1 m/S 723 mmHg 92%
07:00 +1°C° 0 mm 1 m/S 723 mmHg 90%
08:00 +2°C° 0.1 mm 1 m/S 723 mmHg 85%
09:00 +3°C° 0.1 mm 1 m/S 723 mmHg 80%
10:00 +5°C° 0.1 mm 1 m/S 723 mmHg 75%
11:00 +4°C° 0.3 mm 2 m/S 722 mmHg 72%
12:00 +5°C° 0.3 mm 2 m/S 722 mmHg 69%
13:00 +5°C° 0.3 mm 2 m/S 721 mmHg 66%
14:00 +5°C° 0.4 mm 2 m/S 721 mmHg 66%
15:00 +4°C° 0.4 mm 3 m/S 721 mmHg 66%
16:00 +4°C° 0.4 mm 3 m/S 721 mmHg 66%
17:00 +4°C° 0.1 mm 2 m/S 721 mmHg 72%
18:00 +2°C° 0.1 mm 2 m/S 721 mmHg 77%
19:00 +2°C° 0.1 mm 1 m/S 721 mmHg 82%
20:00 +1°C° 0 mm 1 m/S 721 mmHg 84%
21:00 0°C° 0 mm 1 m/S 721 mmHg 86%
22:00 -1°C° 0 mm 1 m/S 722 mmHg 88%
23:00 -1°C° 0 mm 1 m/S 722 mmHg 89%

15 April, Donnerstag

Zeit Temperatur Niederschläge Wind Luftdruck Luftfeuchtigkeit
00:00 -2°C° 0 mm 1 m/S 721 mmHg 89%
01:00 -4°C° 0 mm 0 m/S 721 mmHg 90%
02:00 -4°C° 0 mm 0 m/S 721 mmHg 90%
03:00 -3°C° 0 mm 1 m/S 721 mmHg 90%
04:00 -4°C° 0 mm 1 m/S 721 mmHg 90%
05:00 -3°C° 0 mm 1 m/S 721 mmHg 88%
06:00 -2°C° 0 mm 1 m/S 721 mmHg 85%
07:00 -1°C° 0 mm 0 m/S 722 mmHg 82%
08:00 +1°C° 0 mm 1 m/S 721 mmHg 77%
09:00 +3°C° 0 mm 1 m/S 721 mmHg 72%
10:00 +5°C° 0 mm 1 m/S 721 mmHg 66%
11:00 +5°C° 0.2 mm 2 m/S 721 mmHg 65%
12:00 +5°C° 0.2 mm 2 m/S 721 mmHg 64%
13:00 +5°C° 0.2 mm 2 m/S 721 mmHg 64%
14:00 +5°C° 0.3 mm 2 m/S 721 mmHg 66%
15:00 +4°C° 0.3 mm 3 m/S 720 mmHg 68%
16:00 +4°C° 0.3 mm 3 m/S 720 mmHg 71%
17:00 +3°C° 0.1 mm 3 m/S 720 mmHg 76%
18:00 +3°C° 0.1 mm 2 m/S 720 mmHg 81%
19:00 +1°C° 0.1 mm 2 m/S 721 mmHg 87%
20:00 +1°C° 0 mm 2 m/S 721 mmHg 88%
21:00 -1°C° 0 mm 2 m/S 721 mmHg 89%
22:00 +1°C° 0 mm 1 m/S 721 mmHg 90%
23:00 0°C° 0 mm 1 m/S 721 mmHg 91%

16 April, Freitag

Zeit Temperatur Niederschläge Wind Luftdruck Luftfeuchtigkeit
00:00 -1°C° 0 mm 1 m/S 721 mmHg 92%
01:00 -1°C° 0 mm 1 m/S 721 mmHg 92%
02:00 -1°C° 0 mm 1 m/S 720 mmHg 93%
03:00 -1°C° 0 mm 1 m/S 720 mmHg 93%
04:00 -1°C° 0 mm 1 m/S 720 mmHg 93%
05:00 -1°C° 0 mm 1 m/S 720 mmHg 91%
06:00 0°C° 0 mm 1 m/S 720 mmHg 89%
07:00 +1°C° 0 mm 1 m/S 720 mmHg 87%
08:00 +1°C° 0 mm 2 m/S 720 mmHg 81%
09:00 +3°C° 0 mm 2 m/S 720 mmHg 75%
10:00 +4°C° 0 mm 2 m/S 720 mmHg 69%
11:00 +4°C° 0 mm 3 m/S 720 mmHg 65%
12:00 +5°C° 0 mm 3 m/S 720 mmHg 62%
13:00 +7°C° 0 mm 3 m/S 719 mmHg 58%
14:00 +7°C° 0 mm 3 m/S 719 mmHg 61%
15:00 +7°C° 0 mm 3 m/S 719 mmHg 64%
16:00 +5°C° 0 mm 4 m/S 719 mmHg 67%
17:00 +4°C° 0 mm 3 m/S 719 mmHg 72%
18:00 +3°C° 0 mm 3 m/S 719 mmHg 77%
19:00 +2°C° 0 mm 3 m/S 719 mmHg 83%
20:00 +2°C° 0 mm 3 m/S 719 mmHg 85%
21:00 +1°C° 0 mm 3 m/S 720 mmHg 87%
22:00 0°C° 0 mm 4 m/S 720 mmHg 90%
23:00 +1°C° 0 mm 3 m/S 720 mmHg 91%
Mehr zeigen

Wir brauchen deine Erlaubnis

Meteoprog und unser Service Anbieter werden persönliche Daten aufbewahren, so wie Cookies, Geräte Bezeichnung oder ähnliche Technologien von deinem Gerät und Prozess, so wie Persönliche Daten Inhalte und Werbungen, genauso wie social Media und den Verkehr zu analysieren.

  • Aufbewahrung und/oder Zugang zu deiner Geräte Informationen.

    Cookies, Geräte Bezeichnung oder andere Informationen, können aufbewahrt oder Zugang zu deinem Gerät erhalten, für den Grund, der oben angegeben wird.

  • Personalisierte Werbung und Inhalte, Messungen, Einblick in das Publikum und Produkt Entwicklung.

    Werbungen und Inhalte können personalisiert werden, basierend auf ein Profil. Mehr Daten können besser personalisierte Werbungen und Inhalte hinzufügen. Werbung und Inhalte können gezeigt und gemessen werden. Einblicke über das Publikum, welche die Werbung gesehen haben und den Inhalt, können abgeleitet werden. So wie Daten können genutzt werden, um es zu verbessern oder die Benutzer Erfahrung zu verbessern das System und die Software.

Wenn du “Ich stimme zu” klickst, erlaubst du uns, die Cookies zu benutzen die Geräte Bezeichnung, den Web oder ähnliche Technologien zu benutzen. Deine Settings, können in deinem Gerät bei deinem Browser geändert werden.

Für den bestimmten Zweck, berechtigten Interessen beruhen darauf, mehr als auf den Inhalt. Du kannst mehr darüber in unseren Privaten und Cookie Politik lesen.